Find Starlink 3535

NORAD ID: 51722 Int'l Des: 2022-016 Owner: SPXS Country: US Constellation: starlink operational
LEOCIRCULAR

实时位置

正在加载3D地球...

关于 Starlink 3535

正在加载描述...

即将过境

Passes for default location (London). Set your location on the main map for personalized predictions.

高度历史

Loading altitude history...

两行轨道根数

1 51722U 22016J 26123.16311970 .00003845 00000-0 25965-3 0 9990
2 51722 53.2173 84.5774 0001395 93.9903 266.1249 15.08827069231648
Epoch: May 3, 2026 • Age: 23 hours

当前状态

高度 541.7 km
速度 7.60 km/s
星下点 35.78°N, 35.51°W
发射日期 Feb 21, 2022
运行时间 4.1 years
类型 internet

技术详情

分类 Payload
质量 297.00 kg
干质量 275.00 kg
总质量 297.00 kg
长度 0.20 m
直径 2.80 m
跨度 9.00 m
形状 Box + pan
制造商 SPXS
平台类型 Starlink
阶段状态 In Orbit
所有者/国家 SPXS/US

Most Searched